TimeCDT,TemperatureF,Dew PointF,Humidity,Sea Level PressureIn,VisibilityMPH,Wind Direction,Wind SpeedMPH,Gust SpeedMPH,PrecipitationIn,Events,Conditions,WindDirDegrees,DateUTC
12:15 AM,88.7,56.7,34,29.97,10.0,SE,8.1,-,N/A,,Clear,130,2013-09-07 05:15:00
12:35 AM,88.5,56.3,33,29.97,10.0,SE,5.8,-,N/A,,Clear,130,2013-09-07 05:35:00
12:55 AM,88.3,56.3,34,29.97,10.0,SE,8.1,-,N/A,,Scattered Clouds,130,2013-09-07 05:55:00
1:15 AM,87.6,56.1,34,29.97,10.0,SSE,9.2,-,N/A,,Scattered Clouds,150,2013-09-07 06:15:00
1:35 AM,86.9,56.5,35,29.98,10.0,South,6.9,-,N/A,,Clear,180,2013-09-07 06:35:00
1:55 AM,86.5,58.3,38,29.98,10.0,South,6.9,-,N/A,,Clear,190,2013-09-07 06:55:00
2:15 AM,85.8,59.4,41,29.98,10.0,SSW,4.6,-,N/A,,Clear,200,2013-09-07 07:15:00
2:35 AM,85.3,61.0,44,29.98,10.0,SSW,5.8,-,N/A,,Clear,200,2013-09-07 07:35:00
2:55 AM,84.9,62.1,46,29.98,10.0,SSW,4.6,-,N/A,,Clear,200,2013-09-07 07:55:00
3:15 AM,84.4,63.3,49,29.98,10.0,South,3.5,-,N/A,,Clear,180,2013-09-07 08:15:00
3:35 AM,84.2,64.4,51,29.99,10.0,South,5.8,-,N/A,,Clear,190,2013-09-07 08:35:00
3:55 AM,84.0,64.6,52,29.99,10.0,South,4.6,-,N/A,,Mostly Cloudy,170,2013-09-07 08:55:00
4:15 AM,82.2,64.4,55,29.99,10.0,South,3.5,-,N/A,,Mostly Cloudy,180,2013-09-07 09:15:00
4:35 AM,83.3,65.3,54,29.99,10.0,SSW,4.6,-,N/A,,Mostly Cloudy,200,2013-09-07 09:35:00
4:55 AM,83.3,65.5,55,29.99,10.0,South,4.6,-,N/A,,Scattered Clouds,190,2013-09-07 09:55:00
5:15 AM,82.9,65.7,56,30.00,10.0,South,3.5,-,N/A,,Clear,180,2013-09-07 10:15:00
5:35 AM,82.6,65.8,57,30.00,10.0,South,3.5,-,N/A,,Mostly Cloudy,180,2013-09-07 10:35:00
5:47 AM,80.6,66.2,61,30.00,13.0,South,3.5,-,N/A,,Scattered Clouds,180,2013-09-07 10:47:00
5:55 AM,82.4,66.2,58,30.00,10.0,South,4.6,-,N/A,,Mostly Cloudy,190,2013-09-07 10:55:00
6:47 AM,78.8,66.2,65,30.02,13.0,SE,5.8,-,N/A,,Mostly Cloudy,140,2013-09-07 11:47:00
7:58 AM,80.6,68.0,65,30.02,13.0,SSE,5.8,-,N/A,,Partly Cloudy,160,2013-09-07 12:58:00
8:47 AM,82.4,68.0,62,-9999,13.0,SSE,5.8,-,N/A,,Scattered Clouds,150,2013-09-07 13:47:00
9:47 AM,84.2,68.0,58,30.05,13.0,SSE,10.4,-,N/A,,Scattered Clouds,160,2013-09-07 14:47:00
10:47 AM,87.8,68.0,52,30.06,13.0,SSW,5.8,-,N/A,,Partly Cloudy,200,2013-09-07 15:47:00
11:47 AM,91.4,64.4,41,30.05,13.0,South,10.4,-,N/A,,Clear,180,2013-09-07 16:47:00
12:47 PM,93.2,62.6,36,30.03,13.0,SE,5.8,12.7,N/A,,Partly Cloudy,140,2013-09-07 17:47:00
1:47 PM,95.0,59.0,30,30.01,13.0,SE,8.1,18.4,N/A,,Scattered Clouds,140,2013-09-07 18:47:00
3:47 PM,96.8,59.0,28,29.96,13.0,SSE,9.2,17.3,N/A,,Scattered Clouds,160,2013-09-07 20:47:00
4:50 PM,96.8,57.2,27,29.93,15.0,East,5.8,-,N/A,,Scattered Clouds,100,2013-09-07 21:50:00
5:54 PM,96.8,57.2,27,29.93,15.0,ESE,9.2,-,N/A,,Partly Cloudy,120,2013-09-07 22:54:00
6:56 PM,95.0,57.2,28,29.93,15.0,SE,9.2,-,N/A,,Partly Cloudy,130,2013-09-07 23:56:00
7:47 PM,93.2,57.2,30,29.93,15.0,ESE,4.6,-,N/A,,Clear,110,2013-09-08 00:47:00
8:55 PM,91.4,57.2,31,29.95,15.0,SE,8.1,-,N/A,,Clear,130,2013-09-08 01:55:00
9:47 PM,86.0,62.6,45,29.97,15.0,South,13.8,21.9,N/A,,Clear,170,2013-09-08 02:47:00
10:15 PM,86.0,60.8,43,29.97,10.0,South,8.1,-,N/A,,Clear,180,2013-09-08 03:15:00
10:35 PM,85.5,61.0,44,29.97,10.0,South,10.4,18.4,N/A,,Clear,190,2013-09-08 03:35:00
10:55 PM,84.7,61.2,45,29.97,10.0,South,10.4,-,N/A,,Clear,190,2013-09-08 03:55:00
11:15 PM,84.2,61.9,47,29.98,10.0,South,6.9,-,N/A,,Clear,190,2013-09-08 04:15:00
11:35 PM,83.5,62.6,49,29.98,10.0,SSW,5.8,-,N/A,,Clear,200,2013-09-08 04:35:00
11:55 PM,83.1,62.8,50,29.98,10.0,SSW,4.6,-,N/A,,Clear,210,2013-09-08 04:55:00